FW5913 Weather Reports


time (UTC)temp
C
wind
direction
speed
KPH
gust
KPH
rain 1hr
cm
rain 24hr
cm
rain mn
cm
humidity
%
barometer
mb
20260506222205 8 285 6.4 8.0 0.00 1.47 0.00 98 1009.0
20260506221203 8 323 6.4 8.0 0.00 1.50 0.00 97 1008.9
20260506220202 8 341 4.8 8.0 0.00 1.55 0.00 97 1009.0
20260506215411 8 328 3.2 4.8 0.00 1.57 1.55 97 1009.0
20260506214429 8 327 4.8 6.4 0.00 1.63 1.55 97 1009.0
20260506213407 8 333 4.8 6.4 0.00 1.68 1.55 97 1009.0
20260506212406 8 292 6.4 11.3 0.00 1.73 1.55 97 1009.0
20260506211405 8 288 6.4 8.0 0.00 1.80 1.55 97 1008.9
20260506210404 8 285 3.2 6.4 0.00 1.88 1.55 97 1008.9
20260506205403 8 330 4.8 9.7 0.00 1.96 1.55 97 1008.8
20260506204402 8 327 4.8 8.0 0.00 2.01 1.55 97 1008.8
20260506203520 8 322 3.2 6.4 0.00 2.06 1.55 97 1008.7
20260506202459 8 322 6.4 9.7 0.00 2.11 1.55 97 1008.7
20260506201457 9 336 4.8 8.0 0.00 2.16 1.55 97 1008.6
20260506200456 9 312 3.2 8.0 0.00 2.21 1.55 97 1008.4
20260506195514 9 332 3.2 6.4 0.00 2.26 1.55 97 1008.4
20260506194453 9 320 4.8 8.0 0.00 2.31 1.55 97 1008.5
20260506193510 9 308 3.2 4.8 0.00 2.36 1.55 96 1008.3
20260506192448 9 337 4.8 9.7 0.00 2.41 1.55 96 1008.2
20260506191447 9 332 6.4 11.3 0.00 2.46 1.55 95 1008.1
20260506190445 10 339 6.4 11.3 0.00 2.46 1.52 95 1007.9
20260506185443 10 357 4.8 9.7 0.00 2.46 1.52 94 1007.8
20260506184441 10 348 6.4 9.7 0.00 2.49 1.52 94 1007.7
20260506183437 10 320 6.4 12.9 0.00 2.49 1.52 94 1007.5
20260506182435 10 290 4.8 9.7 0.00 2.49 1.52 93 1007.3
20260506181434 10 308 3.2 6.4 0.00 2.49 1.52 93 1007.1
20260506180433 10 304 4.8 9.7 0.00 2.49 1.52 93 1007.2
20260506175431 10 307 6.4 9.7 0.00 2.51 1.52 93 1007.1
20260506174429 10 297 6.4 9.7 0.00 2.51 1.52 93 1007.1
20260506173427 10 318 3.2 6.4 0.00 2.51 1.52 93 1007.0
20260506172423 10 332 4.8 9.7 0.00 2.51 1.52 93 1007.0
20260506171441 10 295 6.4 9.7 0.00 2.51 1.52 93 1007.0
20260506170420 11 326 6.4 6.4 0.00 2.51 1.52 92 1006.9
20260506165417 11 291 6.4 12.9 0.00 2.51 1.52 92 1006.8
20260506164415 11 295 6.4 9.7 0.00 2.51 1.52 91 1006.8
20260506163434 11 308 6.4 9.7 0.00 2.51 1.52 90 1006.7
20260506162412 11 307 6.4 9.7 0.00 2.51 1.52 90 1006.6
20260506161410 12 308 4.8 11.3 0.00 2.51 1.52 90 1006.6
20260506160429 12 292 6.4 11.3 0.00 2.51 1.52 89 1006.6
20260506155427 12 306 6.4 8.0 0.00 2.51 1.52 89 1006.7
20260506154407 12 301 6.4 8.0 0.00 2.51 1.52 87 1006.6
20260506153406 12 316 4.8 9.7 0.00 2.57 1.52 86 1006.6
20260506152404 13 316 4.8 9.7 0.00 2.62 1.52 86 1006.6
20260506151402 12 300 4.8 6.4 0.00 2.69 1.52 87 1006.6
20260506150401 12 323 6.4 8.0 0.00 2.69 1.52 87 1006.7
20260506145520 13 320 3.2 6.4 0.00 2.69 1.52 87 1006.6
20260506144459 12 331 4.8 9.7 0.00 2.69 1.52 89 1006.6
20260506143457 13 307 4.8 6.4 0.00 2.69 1.52 86 1006.5
20260506142455 13 301 4.8 9.7 0.00 2.69 1.52 85 1006.5
20260506141453 14 7 4.8 6.4 0.00 2.69 1.52 84 1006.6
20260506140451 13 327 4.8 6.4 0.00 2.69 1.52 85 1006.5
20260506135450 13 304 6.4 8.0 0.00 2.69 1.52 85 1006.6
20260506134449 13 313 4.8 8.0 0.00 2.69 1.52 86 1006.6
20260506133447 13 306 6.4 11.3 0.00 2.69 1.52 87 1006.6
20260506132446 13 328 4.8 6.4 0.00 2.87 1.52 85 1006.7
20260506131443 13 292 4.8 6.4 0.00 3.02 1.52 84 1006.6
20260506130442 14 313 6.4 12.9 0.00 3.07 1.52 85 1006.6
20260506125441 14 303 3.2 9.7 0.00 3.12 1.52 84 1006.5
20260506124439 15 352 9.7 17.7 0.00 3.12 1.52 84 1006.4
20260506123436 14 13 8.0 9.7 0.00 3.12 1.52 85 1006.4
20260506122434 14 328 6.4 12.9 0.00 3.12 1.52 85 1006.4
20260506121433 15 330 9.7 14.5 0.00 3.12 1.52 79 1006.5
20260506120430 15 112 4.8 8.0 0.00 3.17 1.52 78 1006.5
20260506115448 15 103 4.8 9.7 0.00 3.20 1.52 79 1006.4
20260506114425 15 157 1.6 6.4 0.00 3.20 1.52 80 1006.4
20260506113423 14 95 8.0 12.9 0.00 3.20 1.52 79 1006.4
20260506112421 14 111 9.7 14.5 0.00 3.20 1.52 80 1006.4
20260506111418 14 136 6.4 14.5 0.00 3.20 1.52 79 1006.4
20260506110415 13 175 4.8 8.0 0.00 3.20 1.52 82 1006.4
20260506105434 14 91 11.3 14.5 0.00 3.20 1.52 83 1006.4
20260506104412 14 118 6.4 8.0 0.00 3.20 1.52 83 1006.4
20260506103430 14 110 8.0 14.5 0.00 3.20 1.52 84 1006.4
20260506102408 13 147 11.3 16.1 0.00 3.20 1.52 87 1006.3
20260506101407 13 109 9.7 11.3 0.00 3.20 1.52 87 1006.4
20260506100446 13 113 11.3 16.1 0.00 3.20 1.52 88 1006.3
20260506095405 13 134 6.4 17.7 0.00 3.20 1.52 88 1006.2
20260506094403 13 124 8.0 17.7 0.00 3.20 1.52 88 1006.1
20260506093402 13 118 9.7 16.1 0.00 3.20 1.52 88 1006.1
20260506092401 13 110 9.7 12.9 0.00 3.20 1.52 88 1006.0
20260506091359 13 109 6.4 9.7 0.00 3.20 1.52 85 1006.1
20260506090357 14 123 1.6 3.2 0.00 3.20 1.52 84 1006.0
20260506085355 13 129 9.7 14.5 0.00 3.20 1.52 85 1005.9
20260506084354 13 132 6.4 12.9 0.00 3.20 1.52 86 1005.9
20260506083352 13 110 8.0 11.3 0.00 3.20 1.52 87 1005.8
20260506082351 13 113 3.2 6.4 0.00 3.20 1.52 88 1005.8
20260506081349 13 113 9.7 9.7 0.00 3.20 1.52 88 1005.8
20260506080347 13 110 4.8 11.3 0.00 3.20 1.52 86 1005.7
20260506073342 12 92 6.4 9.7 0.00 3.20 1.52 91 1005.6
20260506072341 12 117 6.4 6.4 0.00 3.20 1.52 93 1005.7
20260506071339 11 112 8.0 9.7 0.05 3.20 1.52 94 1005.6
20260506070338 11 110 8.0 12.9 0.08 3.20 1.52 94 1005.6
20260506062330 11 148 4.8 6.4 0.15 3.20 1.52 95 1005.6
20260506061328 11 175 1.6 4.8 0.15 3.15 1.50 95 1005.6
20260506060327 11 159 3.2 11.3 0.18 3.12 1.45 95 1005.4
20260506051318 10 282 1.6 1.6 0.15 3.02 1.35 96 1005.6
20260506050317 10 251 1.6 3.2 0.10 2.95 1.27 97 1005.6
20260506044354 10 183 0.0 1.6 0.08 2.92 1.24 97 1005.6
20260506043313 10 286 1.6 1.6 0.05 2.90 1.22 97 1005.6
20260506042311 10 13 1.6 1.6 0.03 2.87 1.19 97 1005.6
20260506041310 10 352 1.6 1.6 0.00 2.84 1.19 97 1005.8
20260506040309 10 282 1.6 1.6 0.00 2.84 1.17 97 1005.8
20260506035308 10 289 1.6 3.2 0.00 2.84 1.17 97 1005.8
20260506034307 10 282 0.0 1.6 0.00 2.84 1.17 97 1005.8
20260506033306 10 260 1.6 1.6 0.00 2.87 1.17 97 1005.9
20260506032306 10 4 3.2 4.8 0.00 2.87 1.17 97 1006.1
20260506031303 10 326 1.6 1.6 0.03 2.87 1.17 97 1006.2
20260506030323 10 355 3.2 3.2 0.03 2.87 1.17 97 1006.3
20260506025305 10 301 1.6 3.2 0.03 2.87 1.17 96 1006.3
20260506024300 10 2 3.2 4.8 0.05 2.87 1.17 96 1006.4
20260506023258 10 310 1.6 1.6 0.10 2.87 1.17 96 1006.4
20260506022256 10 279 1.6 1.6 0.18 2.87 1.17 96 1006.5
20260506021255 10 220 0.0 0.0 0.23 2.87 1.17 97 1006.5
20260506020254 10 348 0.0 1.6 0.28 2.87 1.14 97 1006.6
20260506015312 10 1 1.6 1.6 0.33 2.87 1.14 97 1006.5
20260506014251 10 240 1.6 1.6 0.38 2.82 1.12 96 1006.6
20260506013249 10 228 0.0 1.6 0.38 2.77 1.07 96 1006.7
20260506012247 10 253 0.0 1.6 0.36 2.69 0.99 96 1006.8
20260506011245 11 300 1.6 1.6 0.36 2.64 0.91 97 1006.8
20260506010244 11 335 1.6 3.2 0.38 2.59 0.86 97 1006.9
20260506005242 11 294 1.6 4.8 0.38 2.51 0.81 96 1007.0
20260506004240 11 279 3.2 3.2 0.41 2.46 0.74 96 1007.1
20260506003235 11 14 3.2 3.2 0.38 2.41 0.69 96 1007.1
20260506002233 11 277 1.6 4.8 0.36 2.34 0.61 96 1007.3
20260506001241 11 288 3.2 6.4 0.30 2.26 0.56 96 1007.4
20260506000219 11 283 3.2 4.8 0.25 2.18 0.48 95 1007.6
20260505235218 11 323 3.2 8.0 0.23 2.13 0.41 95 1007.7
20260505234216 11 322 3.2 4.8 0.20 2.06 0.36 94 1007.8
20260505233215 12 301 1.6 3.2 0.18 2.01 0.30 95 1007.8
20260505232213 12 167 8.0 16.1 0.18 1.98 0.28 94 1007.8
20260505231211 12 172 3.2 6.4 0.20 1.98 0.25 94 1007.8
20260505230210 12 165 4.8 6.4 0.20 1.93 0.20 95 1007.9
20260505225208 12 210 3.2 3.2 0.23 1.91 0.18 95 1007.9
20260505224207 12 298 1.6 3.2 0.23 1.85 0.15 96 1008.0
20260505223206 12 276 1.6 6.4 0.25 1.83 0.10 96 1008.1